Погода в Сергово

Россия / Новгородская область     58°20′18″N   31°05′25″E
темп.,
°C
ветер,
м/с
пор.,
м/с
влажн.,
%
обл.,
%
осадки,
мм/ч
давл.,
гПа
погр.,
м
2 марта, вт
вт200:00+2зсз61389100 0.0 1013478
03:00+2з61190100 0.0 1014433
06:00+2з51091100 0.0 1012392
09:00+1зсз61294100 0.1 1012552
12:00+2сз61182100 0.0 1013690
15:00+3сз7127677 0.0 1014690
18:00+1сз613780 0.0 1016559
21:000сз513830 0.0 1019502
3 марта, ср
ср300:00−1зсз510860 0.0 1019331
03:00−1зсз511891 0.0 1020334
06:00−1зсз612907 0.0 1018406
09:00−1з6128836 0.0 1018523
12:00+1зсз7117993 0.0 1017764
15:00+2з6107397 0.0 1015729
18:00+2з51179100 0.0 1011399
21:00+2зюз51287100 0.1 1009408
4 марта, чт
чт400:00+1з71497100 0.1 1005613
03:00+2з61292100 0.3 1003540
06:000сз51095100 0.2 1002465
09:00−2сз51075100 0.3 1003528
12:00−1ссз476433 0.0 10021012
15:000ссз476225 0.0 10031091
18:00−2сз377172 0.1 1004337
21:00−3ссз588585 0.1 1006631
5 марта, пт
пт500:00−4ссз477599 0.1 1006580
03:00−5сз467778 0.1 1008447
06:00−6сз478027 0.0 1009459
09:00−6сз478061 0.1 1010775
12:00−5сз4673100 0.1 1011860
15:00−4сз4566100 0.1 10131050
18:00−4сз4666100 0.1 1013733
21:00−6ссз4677100 0.1 1016536
6 марта, сб
сб600:00−8с586999 0.3 1017645
03:00−9ссз357456 0.3 1019444
06:00−9зсз36800 0.0 1019242
09:00−8з47770 0.0 1018259
12:00−5зюз69650 0.0 1016764
15:00−3зюз7115730 0.0 10131128
18:00−4юз91575100 0.1 10071033
21:00−3зюз101891100 1.3 10001102